Home > Weather > Lowell > Past weeks

Flag for USA Past Weather in Lowell, Massachusetts, USA — Yesterday and Last 2 Weeks

Now
79 °F

Sunny.


Feels Like: 79 °F
Forecast: 56 / 82 °F
Wind: 10 mph from Southeast

Location: Hanscom Field

Current Time: Jun 24, 2016 at 4:34:51 PM

Latest Report: Jun 24, 2016 at 3:56 PM


Visibility: 10 mi

Pressure: 30.11 "Hg

Humidity: 29%

Dew Point: 44 °F

Location of LowellLocation

Past Weather in Lowell — Graph

°F

Lowell Temperature Yesterday

Maximum temperature yesterday: 84 °F (at 2:56 PM)
Minimum temperature yesterday: 48 °F (at 4:56 AM)
Average temperature yesterday: 67 °F

High & Low Weather Summary for the Past Weeks

 TemperatureHumidityPressure
High87 °F (Jun 20, 1:56 PM)100% (Jun 12, 12:01 AM)30.35 "Hg (Jun 12, 12:01 AM)
Low48 °F (Jun 11, 2:56 AM)23% (Jun 18, 1:56 PM)29.52 "Hg (Jun 12, 10:56 AM)
Average66 °F57%29.91 "Hg
* Reported Jun 9 2:56 PM — Jun 24 2:56 PM, Lowell, Weather by CustomWeather, © 2016

Note: Actual official high and low records may vary slightly from our data, if they occured in-between our weather recording intervals... More about our weather records

Advertising

Lowell Weather History for the Previous 24 Hours

Scroll right to see more
 ConditionsComfort  
Time TempWeatherWind HumidityBarometerVisibility
2:56 PM
Fri, Jun 24
78 °FSunny.10 mph31%30.11 "Hg10 mi
1:56 PM78 °FSunny.10 mph32%30.11 "Hg10 mi
12:56 PM78 °FPassing clouds.9 mph32%30.11 "Hg10 mi
11:56 AM81 °FPassing clouds.7 mph32%30.11 "Hg10 mi
10:56 AM77 °FSunny.5 mph32%30.10 "Hg10 mi
9:56 AM76 °FSunny.8 mph39%30.09 "Hg10 mi
8:56 AM73 °FSunny.N/A43%30.08 "Hg10 mi
7:56 AM67 °FSunny.3 mph59%30.06 "Hg10 mi
6:56 AM59 °FSunny.No wind81%30.04 "Hg10 mi
5:56 AM52 °FClear.No wind86%30.02 "Hg10 mi
4:56 AM53 °FClear.No wind86%29.99 "Hg10 mi
3:56 AM52 °FClear.No wind89%29.97 "Hg10 mi
2:56 AM53 °FClear.No wind86%29.95 "Hg10 mi
1:56 AM54 °FClear.No wind90%29.94 "Hg10 mi
12:56 AM57 °FClear.No wind87%29.92 "Hg10 mi
11:56 PM
Thu, Jun 23
58 °FClear.No wind84%29.92 "Hg10 mi
10:56 PM62 °FClear.No wind75%29.92 "Hg10 mi
9:56 PM65 °FPassing clouds.No wind68%29.89 "Hg10 mi
8:56 PM68 °FSunny.7 mph59%29.87 "Hg10 mi
7:56 PM72 °FBroken clouds.6 mph52%29.84 "Hg10 mi
6:56 PM74 °FPartly sunny.7 mph41%29.83 "Hg10 mi
5:56 PM76 °FPartly sunny.9 mph36%29.83 "Hg10 mi
4:56 PM78 °FPartly sunny.10 mph32%29.84 "Hg10 mi
Weather by CustomWeather, © 2016

See weather overviewHow to use our weather pages